Powrót do katalogu

STARLINK-36258

AktywnyŁącznośćVLEO
NORAD 67104·PAYLOAD·🇺🇸 United States

Wystrzelony Dec 15, 2025 z Cape Canaveral Space Force Station

Loading…

Następne Przeloty (najbliższe 24 godziny)

TLE

ŚwieżeSource: CelesTrak SupGP

Epoka: Sep 15, 2026, 04:15 UTC

1 67104C 25299C   26258.17756944  .00018820  00000+0  68181-3 0  2584
2 67104  43.0026 179.0769 0001351 274.8083  80.1367 15.27562427    13

Śledź STARLINK-36258 w czasie rzeczywistym z AllMySat

Download on the App Store